[[{"header":{"parameterUnit":"m.s-1","parameterCategory":1,"la1":30.2991,"la2":30.254,"lo1":-89.0895,"lo2":-89.0444,"dy":0.0017,"dx":0.0017,"nx":28,"ny":28,"refTime":"2026-02-16T03:00:00:Z","depth":0,"parameterNumber":2,"parameterNumberName":"U-component_of_WINDS"},"data":[0,0,0,0,0,0,0,0,0,0,0,0,0,0,0,0,0,0,0,0,0,0,0,0,0,0,0,0,0,0,0,0,0,0,0,0,0,0,0,0,0,0,0,0,0,0,0,0,0,0,0,0,0,0,0,0,0,0,0.913,0.9131,0,0.9219,0.922,0.9221,0.9262,0.9262,0.9262,0.9262,0.9351,0.9354,0.9356,0,0,0,0,0,0,0,0,0,0,0,0,0,0.8993,0.8995,0.9129,0.9131,0.9132,0.9219,0.922,0.9222,0.9262,0.9262,0.9262,0.9262,0.9351,0.9353,0.9356,0,0,0,0,0,0,0,0,0,0,0,0,0,0.9064,0.8996,0.9129,0.9163,0.9166,0.9219,0.922,0.9222,0.9262,0.9262,0.9262,0.9262,0.935,0.9353,0.9357,0.9382,0,0,0.9368,0.937,0,0,0,0,0,0,0,0,0.906,0.9069,0.9157,0.916,0.9165,0.9229,0.9205,0.9276,0.9262,0.9226,0.9262,0.9262,0.9311,0.9318,0.9335,0.9386,0.939,0.9368,0.9371,0.9372,0.9373,0,0,0,0,0,0,0,0.9055,0.9066,0.9165,0.9158,0.9163,0.9173,0.9183,0.9219,0.9268,0.9229,0.9232,0.9242,0.9313,0.9331,0.9337,0.9391,0.9368,0.9372,0.9374,0.9375,0.9471,0.9471,0,0,0,0,0,0,0.9045,0.9061,0.9162,0.9168,0.9111,0.9175,0.9187,0.9209,0.9268,0.9276,0.9242,0.9244,0.9325,0.9333,0.934,0.9375,0.9372,0.9376,0.9378,0.947,0.9471,0.9471,0,0,0,0,0,0,0.9042,0.9054,0.9159,0.9115,0.913,0.9178,0.9202,0.9211,0.9229,0.9278,0.9286,0.9252,0.9325,0.9335,0.9372,0.9379,0.9377,0.9381,0.947,0.9471,0.9471,0.9444,0,0,0,0,0,0,0.9038,0.9052,0.9062,0.9115,0.9132,0.9189,0.9203,0.9212,0.9235,0.9238,0.9289,0.9297,0.9326,0.9366,0.9376,0.9384,0.9384,0.947,0.947,0.9471,0.9445,0.9444,0.9443,0,0,0,0,0,0.9033,0.905,0.9063,0.9074,0.9145,0.9189,0.9198,0.9231,0.9236,0.9246,0.9278,0.9295,0.9377,0.937,0.9381,0.939,0.9469,0.947,0.9471,0.9445,0.9444,0.9443,0,0,0,0,0,0,0.8995,0.9058,0.9072,0.9107,0.9143,0.9196,0.921,0.9229,0.9263,0.9264,0.9303,0.9315,0.9348,0.9373,0.9364,0.9419,0.9425,0.9428,0.9401,0.9401,0.94,0.9393,0.9387,0,0,0,0,0,0.8991,0.9022,0.9075,0.91,0.9118,0.9161,0.9181,0.9204,0.9242,0.9257,0.9291,0.9327,0.9361,0.9382,0.9416,0.9449,0.9461,0.9461,0.946,0.9459,0.9461,0.9482,0.9483,0.9474,0.9474,0.9474,0,0,0.8983,0.9021,0.9037,0.9094,0.9124,0.9155,0.9173,0.9204,0.9228,0.9261,0.9299,0.9326,0.9368,0.9404,0.9421,0.9425,0.9466,0.946,0.9459,0.9461,0.9483,0.9483,0.9484,0.9474,0.9474,0.9474,0,0,0.8983,0.9015,0.9041,0.9071,0.9117,0.9146,0.9153,0.9204,0.9223,0.9262,0.9288,0.9317,0.9373,0.9403,0.9426,0.9441,0.9459,0.9451,0.9446,0.9466,0.9466,0.9467,0.9473,0.9475,0.9453,0.9453,0.9453,0,0.8967,0.9015,0.9051,0.9082,0.9107,0.914,0.9167,0.9195,0.9249,0.9265,0.9269,0.9344,0.9374,0.9418,0.9422,0.9439,0.9448,0.9445,0.9463,0.9465,0.9466,0.9472,0.9474,0.9451,0.9452,0.9452,0.9452,0,0.8993,0.9026,0.9041,0.9095,0.9121,0.9149,0.9191,0.9213,0.9234,0.9263,0.9303,0.9341,0.9384,0.9397,0.9417,0.9444,0.9445,0.9456,0.9463,0.9465,0.9472,0.9474,0.945,0.945,0.945,0.9451,0,0,0.897,0.9046,0.9051,0.9076,0.9131,0.9157,0.9188,0.9231,0.925,0.9287,0.9314,0.9363,0.9374,0.9399,0.9424,0.9441,0.9452,0.945,0.9452,0.945,0.9486,0.9477,0.948,0.9464,0.9465,0.9465,0.9482,0,0.8979,0.9036,0.9071,0.9114,0.9146,0.9179,0.9206,0.9242,0.9271,0.9302,0.9333,0.9367,0.9378,0.9395,0.9413,0.9446,0.946,0.9446,0.949,0.9491,0.9478,0.9483,0.9474,0.9488,0.9485,0.9486,0.9486,0,0.8996,0.9034,0.908,0.9133,0.9148,0.9172,0.9215,0.9244,0.9287,0.9306,0.9336,0.9361,0.9396,0.94,0.9449,0.9438,0.9459,0.9478,0.9479,0.9485,0.9488,0.9488,0.9493,0.9495,0.949,0.949,0.949,0,0.8976,0.9039,0.9075,0.9096,0.9158,0.9174,0.9201,0.9243,0.9268,0.9306,0.9323,0.9364,0.9386,0.9418,0.9453,0.9453,0.9499,0.9506,0.9516,0.9515,0.9523,0.9522,0.9531,0.9536,0.9536,0.9536,0.9536,0,0.8982,0.9009,0.9067,0.9089,0.9122,0.9162,0.9192,0.9222,0.926,0.9289,0.932,0.9346,0.9392,0.9424,0.9452,0.9489,0.9498,0.9515,0.9522,0.9512,0.951,0.9526,0.9526,0.9537,0.9537,0.9536,0.9536,0,0.8965,0.9004,0.9047,0.9103,0.9118,0.9139,0.9188,0.9211,0.9242,0.9278,0.9289,0.9337,0.9377,0.9416,0.9468,0.9488,0.9524,0.9533,0.951,0.9514,0.9522,0.9521,0.9541,0.9547,0.9547,0.9547,0.9547,0,0.8966,0.8988,0.9047,0.9069,0.9096,0.9131,0.9157,0.9198,0.9223,0.9275,0.9292,0.9335,0.9371,0.9433,0.9472,0.9513,0.9524,0.9529,0.953,0.9521,0.9525,0.9523,0.9526,0.9527,0.9527,0.9527,0.9527,0,0.8964,0.8983,0.9019,0.9063,0.9093,0.9129,0.9167,0.9183,0.9231,0.9259,0.9301,0.9329,0.9384,0.9426,0.9472,0.95,0.9522,0.9526,0.9531,0.9521,0.9507,0.9515,0.9507,0.9525,0.9525,0.9526,0.9526,0.9526,0.8956,0.8978,0.9024,0.9064,0.9097,0.9131,0.9157,0.9191,0.9227,0.9276,0.9298,0.934,0.9384,0.9449,0.9477,0.9511,0.9516,0.9522,0.9524,0.9525,0.9523,0.9502,0.9519,0.9519,0.9519,0.9519,0.9519,0,0.8956,0.8988,0.9024,0.9076,0.9108,0.9127,0.917,0.9195,0.9232,0.9272,0.9308,0.9357,0.9398,0.9442,0.9486,0.9505,0.9516,0.9515,0.9514,0.952,0.9516,0.9507,0.9505,0.9505,0.9505,0.9505,0.9505,0.9505,0.896,0.8998,0.9023,0.9079,0.9111,0.9153,0.9176,0.9209,0.9241,0.9294,0.9329,0.9358,0.94,0.9448,0.9487,0.9499,0.9514,0.951,0.9525,0.9519,0.952,0.9521,0.9514,0.9513,0.9513,0.9527,0.9527,0.9527]},{"header":{"parameterUnit":"m.s-1","parameterCategory":1,"la1":30.2991,"la2":30.254,"lo1":-89.0895,"lo2":-89.0444,"dy":0.0017,"dx":0.0017,"nx":28,"ny":28,"refTime":"2026-02-16T03:00:00:Z","depth":0,"parameterNumber":3,"parameterNumberName":"V-component_of_WINDS"},"data":[0,0,0,0,0,0,0,0,0,0,0,0,0,0,0,0,0,0,0,0,0,0,0,0,0,0,0,0,0,0,0,0,0,0,0,0,0,0,0,0,0,0,0,0,0,0,0,0,0,0,0,0,0,0,0,0,0,0,-6.1321,-6.1321,0,-6.138,-6.1381,-6.1382,-6.131,-6.1308,-6.1305,-6.1303,-6.1359,-6.1363,-6.1367,0,0,0,0,0,0,0,0,0,0,0,0,0,-6.1141,-6.1145,-6.1321,-6.1321,-6.1322,-6.138,-6.1381,-6.1382,-6.1311,-6.1308,-6.1304,-6.1301,-6.1358,-6.1362,-6.1367,0,0,0,0,0,0,0,0,0,0,0,0,0,-6.1212,-6.1146,-6.132,-6.1294,-6.1292,-6.138,-6.1381,-6.1382,-6.1311,-6.1308,-6.1304,-6.13,-6.1356,-6.1362,-6.1368,-6.1483,0,0,-6.1386,-6.1388,0,0,0,0,0,0,0,0,-6.1208,-6.1218,-6.1297,-6.1296,-6.1294,-6.1334,-6.1338,-6.1416,-6.1312,-6.1304,-6.1303,-6.1298,-6.1353,-6.1359,-6.1379,-6.1486,-6.1488,-6.1386,-6.139,-6.1392,-6.1394,0,0,0,0,0,0,0,-6.1203,-6.1216,-6.1344,-6.1298,-6.1296,-6.1278,-6.1283,-6.1353,-6.135,-6.1304,-6.1299,-6.1308,-6.1352,-6.1373,-6.138,-6.1489,-6.1386,-6.1391,-6.1395,-6.1397,-6.1694,-6.1698,0,0,0,0,0,0,-6.1202,-6.1212,-6.1342,-6.1346,-6.1241,-6.1284,-6.129,-6.1325,-6.1349,-6.1349,-6.1311,-6.1304,-6.1365,-6.1373,-6.1381,-6.1519,-6.1392,-6.1398,-6.1401,-6.1689,-6.1695,-6.1699,0,0,0,0,0,0,-6.1198,-6.1214,-6.134,-6.1278,-6.1292,-6.1291,-6.1331,-6.1328,-6.135,-6.1354,-6.1353,-6.1334,-6.1362,-6.1373,-6.1459,-6.152,-6.14,-6.1406,-6.1684,-6.1691,-6.1697,-6.1794,0,0,0,0,0,0,-6.1194,-6.1213,-6.1258,-6.1279,-6.1296,-6.1418,-6.1335,-6.1332,-6.1361,-6.1352,-6.1375,-6.1375,-6.136,-6.145,-6.1465,-6.1526,-6.141,-6.1679,-6.1687,-6.1695,-6.1785,-6.1803,-6.1818,0,0,0,0,0,-6.1187,-6.1282,-6.1261,-6.1277,-6.1352,-6.1421,-6.143,-6.1413,-6.1366,-6.141,-6.1413,-6.1374,-6.1511,-6.146,-6.1475,-6.1539,-6.1675,-6.1685,-6.1694,-6.1778,-6.18,-6.1818,0,0,0,0,0,0,-6.1266,-6.1284,-6.1261,-6.1365,-6.1393,-6.1409,-6.1464,-6.1436,-6.1476,-6.1466,-6.1441,-6.1446,-6.1538,-6.1547,-6.149,-6.1652,-6.1585,-6.1598,-6.1643,-6.1664,-6.168,-6.1676,-6.1415,0,0,0,0,0,-6.1296,-6.1352,-6.1364,-6.1455,-6.147,-6.1465,-6.1495,-6.1479,-6.1505,-6.1516,-6.1525,-6.1551,-6.16,-6.1632,-6.1677,-6.1786,-6.179,-6.1838,-6.1854,-6.1868,-6.1879,-6.1938,-6.196,-6.1731,-6.1731,-6.1731,0,0,-6.1357,-6.1374,-6.141,-6.1471,-6.149,-6.1548,-6.1475,-6.1539,-6.1581,-6.1525,-6.1607,-6.1615,-6.1642,-6.1741,-6.1784,-6.1751,-6.1943,-6.188,-6.1891,-6.1895,-6.195,-6.1972,-6.1991,-6.1738,-6.1737,-6.1736,0,0,-6.1498,-6.1517,-6.1595,-6.1616,-6.1647,-6.1644,-6.1663,-6.1684,-6.1688,-6.1771,-6.173,-6.1779,-6.1863,-6.1885,-6.1907,-6.2058,-6.2024,-6.2073,-6.2159,-6.2216,-6.2234,-6.225,-6.2304,-6.2324,-6.2085,-6.2085,-6.2085,0,-6.157,-6.1657,-6.1638,-6.1706,-6.1734,-6.1688,-6.1766,-6.1787,-6.1831,-6.185,-6.1813,-6.1919,-6.1933,-6.2036,-6.2074,-6.2093,-6.2113,-6.207,-6.2234,-6.2249,-6.2264,-6.2315,-6.2336,-6.2091,-6.209,-6.209,-6.2089,0,-6.1744,-6.1805,-6.1864,-6.191,-6.1944,-6.2016,-6.2008,-6.2045,-6.2026,-6.2027,-6.2111,-6.2128,-6.2176,-6.2199,-6.2181,-6.23,-6.2278,-6.2238,-6.217,-6.2292,-6.234,-6.2359,-6.2099,-6.2097,-6.2096,-6.2094,0,0,-6.1934,-6.1971,-6.1993,-6.2013,-6.2045,-6.2091,-6.2161,-6.221,-6.2243,-6.2274,-6.2332,-6.2406,-6.2369,-6.2394,-6.2377,-6.2428,-6.2548,-6.2381,-6.2381,-6.2412,-6.268,-6.2711,-6.2734,-6.2526,-6.2529,-6.2532,-6.2678,0,-6.2076,-6.2201,-6.2187,-6.2305,-6.2361,-6.2319,-6.238,-6.2406,-6.2408,-6.2455,-6.2456,-6.2509,-6.2456,-6.2471,-6.252,-6.2523,-6.2601,-6.2512,-6.2578,-6.2581,-6.2573,-6.2759,-6.2791,-6.2928,-6.2697,-6.27,-6.2702,0,-6.2259,-6.23,-6.2424,-6.2448,-6.2471,-6.2527,-6.2571,-6.2617,-6.2645,-6.2643,-6.2672,-6.2647,-6.2717,-6.2648,-6.2744,-6.2684,-6.271,-6.2716,-6.272,-6.2726,-6.2649,-6.2769,-6.2971,-6.2992,-6.2731,-6.2729,-6.2727,0,-6.2386,-6.2472,-6.2558,-6.2577,-6.2607,-6.2647,-6.2661,-6.2686,-6.2716,-6.2755,-6.2774,-6.2819,-6.2844,-6.2879,-6.2867,-6.2818,-6.2965,-6.2895,-6.2965,-6.2965,-6.2997,-6.2995,-6.3206,-6.3014,-6.3014,-6.3014,-6.3013,0,-6.2546,-6.2624,-6.2616,-6.2669,-6.2754,-6.2737,-6.2822,-6.2831,-6.2853,-6.2906,-6.2871,-6.2921,-6.2902,-6.2951,-6.2941,-6.3022,-6.3033,-6.3033,-6.303,-6.3036,-6.3036,-6.3053,-6.3043,-6.3019,-6.3018,-6.3017,-6.3016,0,-6.2702,-6.27,-6.2791,-6.2814,-6.2821,-6.2883,-6.2901,-6.2951,-6.2951,-6.3018,-6.3033,-6.3033,-6.3089,-6.308,-6.3141,-6.3135,-6.3236,-6.3221,-6.3227,-6.3224,-6.3294,-6.3288,-6.3523,-6.3553,-6.3342,-6.3344,-6.3345,0,-6.2805,-6.2864,-6.2894,-6.2928,-6.2946,-6.3001,-6.3033,-6.3018,-6.3052,-6.309,-6.3134,-6.3187,-6.3229,-6.3319,-6.3324,-6.337,-6.3356,-6.3435,-6.3362,-6.3368,-6.3357,-6.3354,-6.336,-6.3449,-6.3452,-6.3454,-6.3455,0,-6.2987,-6.2983,-6.3032,-6.3081,-6.312,-6.3157,-6.3191,-6.322,-6.3208,-6.3249,-6.3306,-6.3339,-6.3403,-6.3455,-6.3499,-6.3512,-6.3482,-6.3479,-6.3497,-6.3504,-6.3506,-6.3506,-6.3266,-6.3473,-6.3471,-6.347,-6.3469,-6.3468,-6.3119,-6.317,-6.32,-6.3255,-6.3279,-6.3312,-6.336,-6.3367,-6.3416,-6.3468,-6.3456,-6.3521,-6.3547,-6.3604,-6.3622,-6.3672,-6.3642,-6.3669,-6.3676,-6.3683,-6.3691,-6.3499,-6.3679,-6.3679,-6.3678,-6.3678,-6.3678,0,-6.3299,-6.3317,-6.3368,-6.3417,-6.3461,-6.3431,-6.3467,-6.3505,-6.3563,-6.3592,-6.3634,-6.3701,-6.3752,-6.3762,-6.381,-6.3848,-6.3836,-6.3862,-6.3859,-6.3862,-6.3715,-6.3694,-6.3871,-6.3871,-6.3871,-6.3871,-6.3871,-6.3871,-6.3398,-6.3484,-6.3484,-6.3581,-6.3597,-6.3663,-6.3686,-6.3715,-6.3738,-6.3815,-6.3858,-6.3865,-6.3886,-6.3936,-6.3981,-6.3983,-6.4002,-6.4034,-6.403,-6.3892,-6.3872,-6.3854,-6.3834,-6.4038,-6.4038,-6.4173,-6.4174,-6.4175]}]]